Home > Weather > Schönebeck > Past weeks

Flag for Germany Past Weather in Schönebeck, Saxony-Anhalt, Germany — Yesterday and Last 2 Weeks

Now
66 °F

Passing clouds.


Feels Like: 66 °F
Forecast: 62 / 76 °F
Wind: 6 mph from Southwest

Location: Leipzig-Schkeuditz

Current Time: Jul 28, 2016 at 8:50:19 AM

Latest Report: Jul 28, 2016 at 8:20 AM


Visibility: N/A

Pressure: 30.04 "Hg

Humidity: 78%

Dew Point: 59 °F

Location of SchönebeckLocation

Past Weather in Schönebeck — Graph

°F

Schönebeck Temperature Yesterday

Maximum temperature yesterday: 81 °F (at 1:20 PM)
Minimum temperature yesterday: 64 °F (at 4:20 AM)
Average temperature yesterday: 70 °F

High & Low Weather Summary for the Past Weeks

 TemperatureHumidityPressure
High88 °F (Jul 22, 3:20 PM)100% (Jul 14, 7:20 AM)30.27 "Hg (Jul 14, 7:20 AM)
Low48 °F (Jul 16, 5:50 AM)25% (Jul 23, 1:50 PM)29.86 "Hg (Jul 13, 2:20 PM)
Average69 °F68%30.06 "Hg
* Reported Jul 13 7:20 AM — Jul 28 7:50 AM, Schönebeck, Weather by CustomWeather, © 2016

Note: Actual official high and low records may vary slightly from our data, if they occured in-between our weather recording intervals... More about our weather records

Advertising

Schönebeck Weather History for the Previous 24 Hours

Scroll right to see more
 ConditionsComfort  
Time TempWeatherWind HumidityBarometerVisibility
7:50 AM
Thu, Jul 28
64 °FPassing clouds.3 mph78%30.01 "HgN/A
7:20 AM64 °FSunny.6 mph78%30.04 "Hg10 mi
6:50 AM63 °FSunny.5 mph88%30.01 "Hg10 mi
6:20 AM61 °FClear.6 mph88%30.01 "Hg10 mi
5:50 AM63 °FClear.6 mph83%30.01 "Hg10 mi
5:20 AM63 °FClear.6 mph88%30.01 "Hg10 mi
4:50 AM63 °FClear.7 mph88%30.01 "Hg10 mi
4:20 AM64 °FClear.7 mph83%30.01 "Hg10 mi
3:50 AM64 °FPartly cloudy.7 mph83%30.01 "HgN/A
3:20 AM64 °FPartly cloudy.7 mph83%30.01 "HgN/A
2:50 AM66 °FPartly cloudy.7 mph73%30.01 "HgN/A
2:20 AM66 °FClear.8 mph78%30.01 "Hg10 mi
1:50 AM66 °FClear.10 mph78%30.01 "Hg10 mi
1:20 AM66 °FClear.8 mph83%30.01 "Hg10 mi
12:50 AM66 °FClear.7 mph88%29.98 "Hg10 mi
12:20 AM66 °FClear.5 mph88%30.01 "Hg10 mi
11:50 PM
Wed, Jul 27
64 °FPassing clouds.6 mph94%30.01 "HgN/A
11:20 PM64 °FClear.6 mph94%29.98 "Hg10 mi
10:50 PM64 °FClear.6 mph94%29.98 "Hg10 mi
10:20 PM64 °FPassing clouds.5 mph88%29.98 "HgN/A
9:50 PM64 °FBroken clouds.6 mph88%29.98 "HgN/A
9:20 PM64 °FPartly sunny.8 mph88%29.98 "HgN/A
8:50 PM66 °FScattered showers. Broken clouds.7 mph88%29.98 "HgN/A
8:20 PM68 °FThunderstorms. Partly sunny.9 mph88%29.95 "HgN/A
7:50 PM70 °FThunderstorms. Partly sunny.2 mph88%29.95 "HgN/A
7:20 PM68 °FRain showers. Partly sunny.6 mph88%29.98 "HgN/A
6:50 PM73 °FSprinkles. Scattered clouds.7 mph74%29.95 "HgN/A
6:20 PM73 °FPartly sunny.9 mph74%29.95 "HgN/A
5:50 PM73 °FPartly sunny.13 mph78%29.95 "HgN/A
5:20 PM73 °FPartly sunny.10 mph74%29.95 "HgN/A
4:50 PM73 °FBroken clouds.8 mph74%29.95 "HgN/A
4:20 PM72 °FBroken clouds.10 mph83%29.98 "HgN/A
3:50 PM72 °FSprinkles. Scattered clouds.5 mph83%29.98 "HgN/A
3:20 PM72 °FSprinkles. Partly sunny.8 mph83%29.95 "HgN/A
2:50 PM73 °FSprinkles. Scattered clouds.16 mph83%29.95 "HgN/A
2:20 PM66 °FThunderstorms. Partly sunny.10 mph88%29.95 "HgN/A
1:50 PM79 °FThunderstorms. Scattered clouds.7 mph61%29.95 "HgN/A
1:20 PM81 °FScattered showers. Broken clouds.6 mph58%29.95 "HgN/A
12:50 PM79 °FBroken clouds.5 mph65%29.98 "HgN/A
12:20 PM79 °FBroken clouds.5 mph61%29.98 "HgN/A
11:50 AM79 °FPartly sunny.5 mph65%29.98 "HgN/A
11:20 AM77 °FPartly sunny.7 mph65%30.01 "HgN/A
10:50 AM77 °FPartly sunny.7 mph65%30.01 "HgN/A
10:20 AM73 °FSunny.8 mph78%30.01 "Hg10 mi
9:50 AM73 °FSunny.7 mph74%30.01 "Hg10 mi
9:20 AM73 °FPartly sunny.8 mph74%30.01 "HgN/A
8:50 AM72 °FPartly sunny.9 mph78%30.01 "HgN/A
8:20 AM70 °FBroken clouds.10 mph83%30.01 "HgN/A
Weather by CustomWeather, © 2016

See weather overviewHow to use our weather pages